COSMOS 1275 DEB

Satellite information

Favourite Embed

Satellite Type and Status

DEBRISIN ORBIT

Key statistics

Satellite COSMOS 1275 DEB at a glance.

Uptime

16264

Days in orbit

Revolutions

≈ 14.1

Per day

Orbit

LEO

Low Earth Orbit

Inclination

83.0

Latest

Satellite identification and parameters

Extended collection of information and parameters for COSMOS 1275 DEB.

Object identification

Identified? True

Debris? True

Object name: COSMOS 1275 DEB

International designator: 1981-053TQ

Object number (NORAD): 42200

Object ID (CCSDS): 42200

Country: COMMONWEALTH OF INDEPENDENT STATES (CIS)

Current information (Y/N): Y

RCS size: SMALL

Orbital parameters

Period: 102.215 minutes

Inclination: 82.9791 deg

SMA: 7241.617 km

Apoapsis: 916.209 km

Periapsis: 810.756 km

RAAN: 274.7466 deg

Eccentricy: 0.00728103

Argument of periapsis: 348.9124 deg

Mean anomaly: 11.0442 deg

Mean motion: 14.08800243 rev/day

Mean motion (dot): 0.00004787 rev/day2

B* drag term: 0.0026995195 1/REarth

Two-line elements (TLE)

Creation date: Dec. 14, 2025, 3:07 a.m.

Reference frame: TEME

Reference center: EARTH

Epoch: Dec. 13, 2025, 1:24 p.m. UTC

TLE line 0: 0 COSMOS 1275 DEB

TLE line 1: 1 42200U 81053TQ 25347.55875192 .00004787 00000-0 26995-2 0 9997

TLE line 2: 2 42200 82.9791 274.7466 0072810 348.9124 11.0442 14.08800243615599

Live tracking on map

Real-time ground track for satellite COSMOS 1275 DEB.

In-orbit conjunctions

A list of the most updated potential collisions computed for object COSMOS 1275 DEB.

Target Orbit TCA Probability of collision Miss distance Type
THOR BURNER 2 R/B SSO 2024-09-29 19:36:07 0.0001714996 331.0 (m) ROCKET BODY
COSMOS 1275 DEB LEO 2024-09-05 18:01:06 0.0001256909 29.0 (m) DEBRIS

Associated space launch

Navigation satellite providing location information for the Tsiklon-B navigation system

COSMOS 1275 DEB was lifted into orbit during the mission ‘Kosmos-3M | Parus 27’, on board a Kosmos-3M space rocket.

The launch took place on June 4, 1981, 3:41 p.m. from 132/2.

For more information about the launch, click the button.

Launch to space Kosmos-3M | Parus 27
Kosmos-3M | Parus 27

Agency: N/A

Status: Launch Successful

Launch date: June 4, 1981, 3:41 p.m. UTC

Rocket: Kosmos-3M

Launch pad: 132/2

Location: Plesetsk Cosmodrome, Russian Federation

...

Latest news about this satellite

There are no fresh news available about this satellite. Check back as we update our databases every day.


Newsletter sign-up

Weekly statistics, charts and insights to help you stay on top of the space industry.